Time,TemperatureF,DewpointF,PressureIn,WindDirection,WindDirectionDegrees,WindSpeedMPH,WindSpeedGustMPH,Humidity,HourlyPrecipIn,Conditions,Clouds,dailyrainin,SoftwareType,DateUTC
2013-01-29 00:00:00,70.7,67.1,30.13,SSE,149,3.2,6.1,88,0.00,,---,0.00,VWS V14.01,2013-01-29 05:00:00,
2013-01-29 00:01:00,66.8,64.3,30.27,ENE,72,0.4,4.7,92,0.00,,---,0.00,VWS V14.01,2013-01-29 05:01:00,
2013-01-29 00:06:00,66.3,63.9,30.27,East,82,0.0,0.0,92,0.00,,---,0.00,VWS V14.01,2013-01-29 05:06:00,
2013-01-29 00:11:00,65.9,63.6,30.27,North,4,0.0,0.0,92,0.00,,---,0.00,VWS V14.01,2013-01-29 05:11:00,
2013-01-29 00:16:00,66.4,64.3,30.27,NNE,24,2.5,2.8,93,0.00,,---,0.00,VWS V14.01,2013-01-29 05:16:00,
2013-01-29 00:21:00,66.3,64.2,30.26,NNE,22,0.0,0.0,93,0.00,,---,0.00,VWS V14.01,2013-01-29 05:21:00,
2013-01-29 00:26:00,65.9,64.0,30.27,ENE,66,0.0,0.0,94,0.00,,---,0.00,VWS V14.01,2013-01-29 05:26:00,
2013-01-29 00:31:00,66.3,64.6,30.26,East,90,4.9,6.0,94,0.00,,---,0.00,VWS V14.01,2013-01-29 05:31:00,
2013-01-29 00:36:00,66.5,64.9,30.26,East,100,1.6,1.9,95,0.00,,---,0.00,VWS V14.01,2013-01-29 05:36:00,
2013-01-29 00:41:00,66.4,64.9,30.26,ESE,111,2.6,2.6,95,0.00,,---,0.00,VWS V14.01,2013-01-29 05:41:00,
2013-01-29 00:46:00,66.4,64.9,30.26,East,93,0.0,0.0,95,0.00,,---,0.00,VWS V14.01,2013-01-29 05:46:00,
2013-01-29 00:51:00,66.2,64.8,30.26,ESE,107,2.1,2.1,95,0.00,,---,0.00,VWS V14.01,2013-01-29 05:51:00,
2013-01-29 00:56:00,66.4,65.0,30.26,East,101,2.2,2.2,95,0.00,,---,0.00,VWS V14.01,2013-01-29 05:56:00,
2013-01-29 01:01:00,66.3,64.9,30.26,ESE,103,0.0,2.1,95,0.00,,---,0.00,VWS V14.01,2013-01-29 06:01:00,
2013-01-29 01:06:00,66.0,64.7,30.25,East,84,3.7,4.5,96,0.00,,---,0.00,VWS V14.01,2013-01-29 06:06:00,
2013-01-29 01:11:00,65.7,64.4,30.25,SE,145,3.0,4.9,96,0.00,,---,0.00,VWS V14.01,2013-01-29 06:11:00,
2013-01-29 01:16:00,65.8,64.5,30.25,SE,146,2.0,2.2,96,0.00,,---,0.00,VWS V14.01,2013-01-29 06:16:00,
2013-01-29 01:21:00,66.0,64.8,30.25,ENE,62,0.0,0.6,96,0.00,,---,0.00,VWS V14.01,2013-01-29 06:21:00,
2013-01-29 01:26:00,65.7,64.5,30.25,SE,141,1.3,4.5,96,0.00,,---,0.00,VWS V14.01,2013-01-29 06:26:00,
2013-01-29 01:31:00,65.7,64.5,30.25,East,83,0.4,1.6,96,0.00,,---,0.00,VWS V14.01,2013-01-29 06:31:00,
2013-01-29 01:36:00,65.4,64.2,30.25,SE,131,0.0,0.0,96,0.00,,---,0.00,VWS V14.01,2013-01-29 06:36:00,
2013-01-29 01:41:00,65.9,64.8,30.25,SE,131,0.0,0.0,96,0.00,,---,0.00,VWS V14.01,2013-01-29 06:41:00,
2013-01-29 01:46:00,65.8,64.7,30.25,SE,124,0.0,0.0,96,0.00,,---,0.00,VWS V14.01,2013-01-29 06:46:00,
2013-01-29 01:51:00,65.7,64.7,30.24,SSE,159,0.0,0.0,96,0.00,,---,0.00,VWS V14.01,2013-01-29 06:51:00,
2013-01-29 01:56:00,65.3,64.3,30.24,SSE,159,0.0,0.0,97,0.00,,---,0.00,VWS V14.01,2013-01-29 06:56:00,
2013-01-29 02:01:00,65.7,64.8,30.24,SSE,159,0.0,0.0,97,0.00,,---,0.00,VWS V14.01,2013-01-29 07:01:00,
2013-01-29 02:06:00,65.3,64.5,30.24,SSE,148,0.0,0.0,97,0.00,,---,0.00,VWS V14.01,2013-01-29 07:06:00,
2013-01-29 02:11:00,65.6,64.8,30.24,SE,142,0.0,0.8,97,0.00,,---,0.00,VWS V14.01,2013-01-29 07:11:00,
2013-01-29 02:16:00,64.9,64.1,30.23,SE,129,0.0,0.0,97,0.00,,---,0.00,VWS V14.01,2013-01-29 07:16:00,
2013-01-29 02:21:00,64.8,64.1,30.23,SE,125,0.0,1.8,98,0.00,,---,0.00,VWS V14.01,2013-01-29 07:21:00,
2013-01-29 02:26:00,65.7,65.0,30.23,East,97,0.0,0.0,98,0.00,,---,0.00,VWS V14.01,2013-01-29 07:26:00,
2013-01-29 02:31:00,65.4,64.7,30.23,SE,132,0.0,0.9,98,0.00,,---,0.00,VWS V14.01,2013-01-29 07:31:00,
2013-01-29 02:36:00,65.2,64.6,30.23,SE,131,1.0,1.5,98,0.00,,---,0.00,VWS V14.01,2013-01-29 07:36:00,
2013-01-29 02:41:00,64.7,64.1,30.23,SE,125,0.0,0.0,98,0.00,,---,0.00,VWS V14.01,2013-01-29 07:41:00,
2013-01-29 02:46:00,64.9,64.3,30.23,SE,125,0.0,0.0,98,0.00,,---,0.00,VWS V14.01,2013-01-29 07:46:00,
2013-01-29 02:51:00,64.7,64.1,30.23,SE,125,0.0,0.0,98,0.00,,---,0.00,VWS V14.01,2013-01-29 07:51:00,
2013-01-29 02:56:00,65.0,64.4,30.23,SE,125,0.0,0.0,98,0.00,,---,0.00,VWS V14.01,2013-01-29 07:56:00,
2013-01-29 03:01:00,64.8,64.3,30.23,SE,143,1.5,2.7,98,0.00,,---,0.00,VWS V14.01,2013-01-29 08:01:00,
2013-01-29 03:06:00,64.3,63.8,30.23,SE,125,0.0,1.4,98,0.00,,---,0.00,VWS V14.01,2013-01-29 08:06:00,
2013-01-29 03:11:00,64.5,64.0,30.23,ESE,107,0.0,2.1,98,0.00,,---,0.00,VWS V14.01,2013-01-29 08:11:00,
2013-01-29 03:16:00,64.8,64.3,30.23,SE,124,0.0,0.0,98,0.00,,---,0.00,VWS V14.01,2013-01-29 08:16:00,
2013-01-29 03:21:00,64.6,64.1,30.23,SE,124,0.0,0.0,98,0.00,,---,0.00,VWS V14.01,2013-01-29 08:21:00,
2013-01-29 03:26:00,64.6,64.2,30.23,SE,124,0.0,0.0,98,0.00,,---,0.00,VWS V14.01,2013-01-29 08:26:00,
2013-01-29 03:31:00,64.3,63.9,30.23,SE,124,0.0,0.0,98,0.00,,---,0.00,VWS V14.01,2013-01-29 08:31:00,
2013-01-29 03:36:00,63.6,63.2,30.23,SE,124,0.0,0.0,99,0.00,,---,0.00,VWS V14.01,2013-01-29 08:36:00,
2013-01-29 03:41:00,64.4,64.1,30.23,SE,124,0.0,0.0,99,0.00,,---,0.00,VWS V14.01,2013-01-29 08:41:00,
2013-01-29 03:46:00,64.7,64.4,30.23,ESE,114,0.0,0.0,99,0.00,,---,0.00,VWS V14.01,2013-01-29 08:46:00,
2013-01-29 03:51:00,63.8,63.6,30.23,ESE,118,0.0,1.6,99,0.00,,---,0.00,VWS V14.01,2013-01-29 08:51:00,
2013-01-29 03:56:00,64.8,64.6,30.23,SSE,152,1.2,1.7,99,0.00,,---,0.00,VWS V14.01,2013-01-29 08:56:00,
2013-01-29 04:01:00,64.8,64.6,30.23,ESE,115,1.6,2.9,99,0.00,,---,0.00,VWS V14.01,2013-01-29 09:01:00,
2013-01-29 04:06:00,65.0,64.8,30.23,ESE,111,0.0,0.0,99,0.00,,---,0.00,VWS V14.01,2013-01-29 09:06:00,
2013-01-29 04:11:00,64.7,64.6,30.22,ESE,114,3.5,4.2,100,0.00,,---,0.00,VWS V14.01,2013-01-29 09:11:00,
2013-01-29 04:16:00,65.1,65.0,30.22,East,101,0.6,2.5,100,0.00,,---,0.00,VWS V14.01,2013-01-29 09:16:00,
2013-01-29 04:21:00,64.8,64.7,30.22,East,82,0.4,0.4,100,0.00,,---,0.00,VWS V14.01,2013-01-29 09:21:00,
2013-01-29 04:26:00,64.8,64.7,30.22,East,96,2.1,2.1,100,0.00,,---,0.00,VWS V14.01,2013-01-29 09:26:00,
2013-01-29 04:31:00,65.4,65.3,30.21,SE,131,1.6,6.3,100,0.00,,---,0.00,VWS V14.01,2013-01-29 09:31:00,
2013-01-29 04:36:00,64.9,64.8,30.22,ESE,104,3.1,3.8,100,0.00,,---,0.00,VWS V14.01,2013-01-29 09:36:00,
2013-01-29 04:41:00,65.1,65.1,30.21,SE,129,0.0,1.0,100,0.00,,---,0.00,VWS V14.01,2013-01-29 09:41:00,
2013-01-29 04:46:00,65.4,65.3,30.21,ESE,103,0.2,2.4,100,0.00,,---,0.00,VWS V14.01,2013-01-29 09:46:00,
2013-01-29 04:51:00,64.7,64.7,30.21,SE,143,0.0,0.0,100,0.00,,---,0.00,VWS V14.01,2013-01-29 09:51:00,
2013-01-29 04:56:00,65.2,65.2,30.22,SE,143,0.0,0.0,100,0.00,,---,0.00,VWS V14.01,2013-01-29 09:56:00,
2013-01-29 05:01:00,64.6,64.6,30.22,SE,143,0.0,0.0,100,0.00,,---,0.00,VWS V14.01,2013-01-29 10:01:00,
2013-01-29 05:06:00,64.0,64.0,30.22,East,89,0.0,1.1,100,0.00,,---,0.00,VWS V14.01,2013-01-29 10:06:00,
2013-01-29 05:11:00,64.3,64.3,30.22,East,86,0.0,0.0,100,0.00,,---,0.00,VWS V14.01,2013-01-29 10:11:00,
2013-01-29 05:16:00,64.4,64.4,30.22,East,86,0.0,0.0,100,0.00,,---,0.00,VWS V14.01,2013-01-29 10:16:00,
2013-01-29 05:21:00,64.8,64.8,30.22,East,86,0.0,0.0,100,0.00,,---,0.00,VWS V14.01,2013-01-29 10:21:00,
2013-01-29 05:26:00,64.6,64.6,30.22,East,86,0.0,0.0,100,0.00,,---,0.00,VWS V14.01,2013-01-29 10:26:00,
2013-01-29 05:31:00,64.4,64.4,30.22,East,86,0.0,0.0,100,0.00,,---,0.00,VWS V14.01,2013-01-29 10:31:00,
2013-01-29 05:36:00,64.6,64.6,30.23,East,86,0.0,0.0,100,0.00,,---,0.00,VWS V14.01,2013-01-29 10:36:00,
2013-01-29 05:41:00,63.9,63.9,30.23,East,86,0.0,0.0,100,0.00,,---,0.00,VWS V14.01,2013-01-29 10:41:00,
2013-01-29 05:46:00,63.8,63.8,30.23,East,86,0.0,0.0,100,0.00,,---,0.00,VWS V14.01,2013-01-29 10:46:00,
2013-01-29 05:51:00,64.3,64.3,30.23,East,86,0.0,0.0,100,0.00,,---,0.00,VWS V14.01,2013-01-29 10:51:00,
2013-01-29 05:56:00,63.6,63.6,30.23,East,86,0.0,0.0,100,0.00,,---,0.00,VWS V14.01,2013-01-29 10:56:00,
2013-01-29 06:01:00,63.9,63.9,30.23,East,86,0.0,0.0,100,0.00,,---,0.00,VWS V14.01,2013-01-29 11:01:00,
2013-01-29 06:06:00,63.5,63.5,30.23,East,86,0.0,0.0,100,0.00,,---,0.00,VWS V14.01,2013-01-29 11:06:00,
2013-01-29 06:11:00,63.4,63.4,30.23,East,86,0.0,0.0,100,0.00,,---,0.00,VWS V14.01,2013-01-29 11:11:00,
2013-01-29 06:16:00,63.0,63.0,30.23,East,86,0.0,0.0,100,0.00,,---,0.00,VWS V14.01,2013-01-29 11:16:00,
2013-01-29 06:21:00,63.7,63.7,30.23,East,86,0.0,0.0,100,0.00,,---,0.00,VWS V14.01,2013-01-29 11:21:00,
2013-01-29 06:26:00,63.4,63.4,30.23,East,86,0.0,0.0,100,0.00,,---,0.00,VWS V14.01,2013-01-29 11:26:00,
2013-01-29 06:31:00,63.4,63.4,30.23,East,86,0.0,0.0,100,0.00,,---,0.00,VWS V14.01,2013-01-29 11:31:00,
2013-01-29 06:36:00,63.5,63.5,30.23,East,86,0.0,0.0,100,0.00,,---,0.00,VWS V14.01,2013-01-29 11:36:00,
2013-01-29 06:41:00,63.2,63.2,30.23,East,86,0.0,0.0,100,0.00,,---,0.00,VWS V14.01,2013-01-29 11:41:00,
2013-01-29 06:46:00,63.5,63.5,30.23,East,86,0.0,0.0,100,0.00,,---,0.00,VWS V14.01,2013-01-29 11:46:00,
2013-01-29 06:51:00,63.3,63.3,30.23,East,100,0.0,0.0,100,0.00,,---,0.00,VWS V14.01,2013-01-29 11:51:00,
2013-01-29 06:56:00,63.8,63.8,30.23,SE,134,1.1,2.0,100,0.00,,---,0.00,VWS V14.01,2013-01-29 11:56:00,
2013-01-29 07:01:00,64.0,64.0,30.23,ESE,122,1.5,4.9,100,0.00,,---,0.00,VWS V14.01,2013-01-29 12:01:00,
2013-01-29 07:06:00,64.6,64.6,30.23,ESE,115,0.0,4.3,100,0.00,,---,0.00,VWS V14.01,2013-01-29 12:06:00,
2013-01-29 07:11:00,63.8,63.8,30.23,ESE,110,0.0,0.0,100,0.00,,---,0.00,VWS V14.01,2013-01-29 12:11:00,
2013-01-29 07:16:00,64.3,64.3,30.23,ESE,117,0.0,0.0,100,0.00,,---,0.00,VWS V14.01,2013-01-29 12:16:00,
2013-01-29 07:21:00,64.8,64.8,30.23,ESE,111,0.0,2.2,100,0.00,,---,0.00,VWS V14.01,2013-01-29 12:21:00,
2013-01-29 07:26:00,64.8,64.8,30.23,ENE,77,1.1,4.4,100,0.00,,---,0.00,VWS V14.01,2013-01-29 12:26:00,
2013-01-29 07:31:00,64.6,64.6,30.24,ESE,115,0.0,0.0,100,0.00,,---,0.00,VWS V14.01,2013-01-29 12:31:00,
2013-01-29 07:36:00,64.2,64.2,30.24,ESE,115,0.0,0.0,100,0.00,,---,0.00,VWS V14.01,2013-01-29 12:36:00,
2013-01-29 07:41:00,64.3,64.3,30.24,ESE,115,0.0,0.0,100,0.00,,---,0.00,VWS V14.01,2013-01-29 12:41:00,
2013-01-29 07:46:00,64.1,64.1,30.24,ESE,115,0.0,0.0,100,0.00,,---,0.00,VWS V14.01,2013-01-29 12:46:00,
2013-01-29 07:51:00,64.9,64.9,30.24,ESE,115,0.0,0.0,100,0.00,,---,0.00,VWS V14.01,2013-01-29 12:51:00,
2013-01-29 07:56:00,64.6,64.6,30.24,ESE,115,0.0,0.0,100,0.00,,---,0.00,VWS V14.01,2013-01-29 12:56:00,
2013-01-29 08:01:00,64.8,64.8,30.24,SE,125,0.0,0.0,100,0.00,,---,0.00,VWS V14.01,2013-01-29 13:01:00,
2013-01-29 08:06:00,65.3,65.3,30.24,SE,125,0.0,0.0,100,0.00,,---,0.00,VWS V14.01,2013-01-29 13:06:00,
2013-01-29 08:11:00,65.3,65.3,30.24,SE,125,0.0,0.0,100,0.00,,---,0.00,VWS V14.01,2013-01-29 13:11:00,
2013-01-29 08:16:00,65.8,65.8,30.24,SE,125,0.0,0.0,100,0.00,,---,0.00,VWS V14.01,2013-01-29 13:16:00,
2013-01-29 08:21:00,65.9,65.9,30.24,SE,125,0.0,0.0,100,0.00,,---,0.00,VWS V14.01,2013-01-29 13:21:00,
2013-01-29 08:26:00,66.1,66.1,30.24,SE,125,0.0,0.0,100,0.00,,---,0.00,VWS V14.01,2013-01-29 13:26:00,
2013-01-29 08:31:00,66.1,66.1,30.24,SE,125,0.0,0.0,100,0.00,,---,0.00,VWS V14.01,2013-01-29 13:31:00,
2013-01-29 08:36:00,66.2,66.2,30.24,SE,125,0.0,0.0,100,0.00,,---,0.00,VWS V14.01,2013-01-29 13:36:00,
2013-01-29 08:41:00,65.5,65.5,30.24,SE,125,0.0,0.0,100,0.00,,---,0.00,VWS V14.01,2013-01-29 13:41:00,
2013-01-29 08:46:00,66.4,66.4,30.24,SE,125,0.0,0.0,100,0.00,,---,0.00,VWS V14.01,2013-01-29 13:46:00,
2013-01-29 08:51:00,66.8,66.8,30.24,SE,132,4.3,4.7,100,0.00,,---,0.00,VWS V14.01,2013-01-29 13:51:00,
2013-01-29 08:56:00,66.8,66.8,30.24,SSE,148,4.0,4.0,100,0.00,,---,0.00,VWS V14.01,2013-01-29 13:56:00,
2013-01-29 09:01:00,67.8,67.8,30.24,SE,138,3.7,4.6,100,0.00,,---,0.00,VWS V14.01,2013-01-29 14:01:00,
2013-01-29 09:06:00,67.3,67.3,30.24,SE,136,2.1,3.7,100,0.00,,---,0.00,VWS V14.01,2013-01-29 14:06:00,
2013-01-29 09:11:00,67.2,67.2,30.24,SE,135,4.1,7.8,100,0.00,,---,0.00,VWS V14.01,2013-01-29 14:11:00,
2013-01-29 09:16:00,68.1,68.1,30.24,SSE,148,3.8,5.7,100,0.00,,---,0.00,VWS V14.01,2013-01-29 14:16:00,
2013-01-29 09:21:00,68.0,68.0,30.24,SSE,158,1.6,4.5,100,0.00,,---,0.00,VWS V14.01,2013-01-29 14:21:00,
2013-01-29 09:26:00,69.4,69.4,30.24,SSE,152,4.5,5.6,100,0.00,,---,0.00,VWS V14.01,2013-01-29 14:26:00,
2013-01-29 09:31:00,69.7,69.6,30.24,SE,145,8.1,9.9,100,0.00,,---,0.00,VWS V14.01,2013-01-29 14:31:00,
2013-01-29 09:36:00,70.2,69.9,30.24,SSE,159,4.1,8.4,99,0.00,,---,0.00,VWS V14.01,2013-01-29 14:36:00,
2013-01-29 09:41:00,70.5,69.9,30.24,SSW,212,5.2,7.4,98,0.00,,---,0.00,VWS V14.01,2013-01-29 14:41:00,
2013-01-29 09:46:00,70.5,69.4,30.24,ESE,115,8.6,8.6,96,0.00,,---,0.00,VWS V14.01,2013-01-29 14:46:00,
2013-01-29 09:51:00,71.1,69.5,30.24,South,187,9.3,10.1,95,0.00,,---,0.00,VWS V14.01,2013-01-29 14:51:00,
2013-01-29 09:56:00,71.7,69.7,30.24,South,191,7.3,13.5,94,0.00,,---,0.00,VWS V14.01,2013-01-29 14:56:00,
2013-01-29 10:01:00,72.3,69.6,30.24,SSE,165,8.8,10.3,91,0.00,,---,0.00,VWS V14.01,2013-01-29 15:01:00,
2013-01-29 10:06:00,73.3,69.8,30.24,SE,135,5.2,8.3,89,0.00,,---,0.00,VWS V14.01,2013-01-29 15:06:00,
2013-01-29 10:11:00,73.0,69.1,30.24,SE,141,4.2,9.8,88,0.00,,---,0.00,VWS V14.01,2013-01-29 15:11:00,
2013-01-29 10:16:00,74.0,69.5,30.23,South,169,3.7,6.6,86,0.00,,---,0.00,VWS V14.01,2013-01-29 15:16:00,
2013-01-29 10:21:00,74.5,69.1,30.24,South,172,5.7,8.6,83,0.00,,---,0.00,VWS V14.01,2013-01-29 15:21:00,
2013-01-29 10:26:00,75.4,69.6,30.23,ESE,117,4.2,9.0,82,0.00,,---,0.00,VWS V14.01,2013-01-29 15:26:00,
2013-01-29 10:31:00,75.8,68.9,30.23,SSE,156,8.0,9.4,79,0.00,,---,0.00,VWS V14.01,2013-01-29 15:31:00,
2013-01-29 10:36:00,76.4,68.7,30.23,South,177,3.4,9.8,77,0.00,,---,0.00,VWS V14.01,2013-01-29 15:36:00,
2013-01-29 10:41:00,76.5,68.0,30.23,SSE,149,3.5,7.6,75,0.00,,---,0.00,VWS V14.01,2013-01-29 15:41:00,
2013-01-29 10:46:00,77.2,68.2,30.23,South,183,7.1,11.8,74,0.00,,---,0.00,VWS V14.01,2013-01-29 15:46:00,
2013-01-29 10:51:00,76.3,67.5,30.23,SSE,167,7.5,8.1,74,0.00,,---,0.00,VWS V14.01,2013-01-29 15:51:00,
2013-01-29 10:56:00,77.7,68.6,30.23,SE,135,9.3,13.2,74,0.00,,---,0.00,VWS V14.01,2013-01-29 15:56:00,
2013-01-29 11:01:00,77.2,66.9,30.23,WSW,243,3.4,6.9,71,0.00,,---,0.00,VWS V14.01,2013-01-29 16:01:00,
2013-01-29 11:06:00,78.2,67.6,30.23,SSE,162,4.8,8.6,70,0.00,,---,0.00,VWS V14.01,2013-01-29 16:06:00,
2013-01-29 11:11:00,78.5,67.0,30.22,SE,128,6.5,9.4,68,0.00,,---,0.00,VWS V14.01,2013-01-29 16:11:00,
2013-01-29 11:16:00,77.9,67.0,30.22,SSE,153,3.1,4.7,69,0.00,,---,0.00,VWS V14.01,2013-01-29 16:16:00,
2013-01-29 11:21:00,78.4,66.5,30.22,South,188,8.0,10.6,67,0.00,,---,0.00,VWS V14.01,2013-01-29 16:21:00,
2013-01-29 11:26:00,79.0,66.9,30.21,SSE,162,6.5,9.9,66,0.00,,---,0.00,VWS V14.01,2013-01-29 16:26:00,
2013-01-29 11:31:00,80.1,66.3,30.21,SE,128,10.1,11.4,63,0.00,,---,0.00,VWS V14.01,2013-01-29 16:31:00,
2013-01-29 11:36:00,80.0,65.4,30.21,South,183,6.8,9.7,61,0.00,,---,0.00,VWS V14.01,2013-01-29 16:36:00,
2013-01-29 11:41:00,80.3,66.2,30.21,SE,131,10.6,13.2,62,0.00,,---,0.00,VWS V14.01,2013-01-29 16:41:00,
2013-01-29 11:46:00,79.5,64.5,30.20,SW,214,3.4,10.8,60,0.00,,---,0.00,VWS V14.01,2013-01-29 16:46:00,
2013-01-29 11:51:00,80.4,65.3,30.20,SE,146,5.5,7.6,60,0.00,,---,0.00,VWS V14.01,2013-01-29 16:51:00,
2013-01-29 11:56:00,79.9,64.4,30.20,SSE,149,5.4,9.9,59,0.00,,---,0.00,VWS V14.01,2013-01-29 16:56:00,
2013-01-29 12:01:00,80.7,64.9,30.20,SSE,148,6.1,9.8,59,0.00,,---,0.00,VWS V14.01,2013-01-29 17:01:00,
2013-01-29 12:06:00,79.8,64.0,30.20,South,191,6.8,10.3,59,0.00,,---,0.00,VWS V14.01,2013-01-29 17:06:00,
2013-01-29 12:11:00,80.4,65.4,30.19,South,188,2.1,6.4,60,0.00,,---,0.00,VWS V14.01,2013-01-29 17:11:00,
2013-01-29 12:16:00,81.2,65.3,30.19,SE,138,3.9,6.6,59,0.00,,---,0.00,VWS V14.01,2013-01-29 17:16:00,
2013-01-29 12:21:00,80.5,63.9,30.19,SSE,163,8.0,10.8,57,0.00,,---,0.00,VWS V14.01,2013-01-29 17:21:00,
2013-01-29 12:26:00,81.4,64.4,30.18,SE,142,7.1,7.6,56,0.00,,---,0.00,VWS V14.01,2013-01-29 17:26:00,
2013-01-29 12:31:00,81.2,64.6,30.18,SSE,152,5.3,6.3,57,0.00,,---,0.00,VWS V14.01,2013-01-29 17:31:00,
2013-01-29 12:36:00,81.5,63.5,30.18,South,180,5.3,9.8,54,0.00,,---,0.00,VWS V14.01,2013-01-29 17:36:00,
2013-01-29 12:41:00,82.3,64.2,30.18,ESE,107,2.1,6.2,54,0.00,,---,0.00,VWS V14.01,2013-01-29 17:41:00,
2013-01-29 12:46:00,81.7,63.5,30.17,South,188,8.8,11.2,54,0.00,,---,0.00,VWS V14.01,2013-01-29 17:46:00,
2013-01-29 12:51:00,81.5,63.6,30.17,ESE,120,9.8,10.2,55,0.00,,---,0.00,VWS V14.01,2013-01-29 17:51:00,
2013-01-29 12:56:00,81.4,63.3,30.17,SE,134,6.6,7.1,54,0.00,,---,0.00,VWS V14.01,2013-01-29 17:56:00,
2013-01-29 13:01:00,81.0,62.8,30.16,SSE,152,6.8,8.3,54,0.00,,---,0.00,VWS V14.01,2013-01-29 18:01:00,
2013-01-29 13:06:00,80.7,63.0,30.16,South,173,5.0,5.5,55,0.00,,---,0.00,VWS V14.01,2013-01-29 18:06:00,
2013-01-29 13:11:00,80.4,62.3,30.16,ESE,105,8.1,11.6,54,0.00,,---,0.00,VWS V14.01,2013-01-29 18:11:00,
2013-01-29 13:16:00,81.6,62.8,30.16,ESE,105,5.0,7.1,53,0.00,,---,0.00,VWS V14.01,2013-01-29 18:16:00,
2013-01-29 13:21:00,82.4,61.6,30.15,SE,143,5.0,8.0,50,0.00,,---,0.00,VWS V14.01,2013-01-29 18:21:00,
2013-01-29 13:26:00,83.2,62.0,30.15,ESE,118,9.0,9.3,49,0.00,,---,0.00,VWS V14.01,2013-01-29 18:26:00,
2013-01-29 13:31:00,82.4,60.5,30.15,ENE,69,1.4,8.1,48,0.00,,---,0.00,VWS V14.01,2013-01-29 18:31:00,
2013-01-29 13:36:00,83.7,61.6,30.15,ESE,118,6.2,11.2,47,0.00,,---,0.00,VWS V14.01,2013-01-29 18:36:00,
2013-01-29 13:41:00,83.9,61.7,30.15,SSE,156,10.4,10.4,47,0.00,,---,0.00,VWS V14.01,2013-01-29 18:41:00,
2013-01-29 13:46:00,84.2,60.5,30.14,SE,129,8.6,12.6,45,0.00,,---,0.00,VWS V14.01,2013-01-29 18:46:00,
2013-01-29 13:51:00,83.0,59.7,30.14,SSE,153,6.7,9.4,45,0.00,,---,0.00,VWS V14.01,2013-01-29 18:51:00,
2013-01-29 13:56:00,82.9,60.5,30.14,ESE,110,6.9,9.4,47,0.00,,---,0.00,VWS V14.01,2013-01-29 18:56:00,
2013-01-29 14:01:00,83.2,60.5,30.14,SE,132,5.6,9.3,46,0.00,,---,0.00,VWS V14.01,2013-01-29 19:01:00,
2013-01-29 14:06:00,82.4,59.4,30.13,SE,131,6.2,6.9,46,0.00,,---,0.00,VWS V14.01,2013-01-29 19:06:00,
2013-01-29 14:11:00,83.5,60.0,30.13,South,176,3.1,8.4,45,0.00,,---,0.00,VWS V14.01,2013-01-29 19:11:00,
2013-01-29 14:16:00,82.9,60.3,30.13,SSE,152,2.4,8.1,46,0.00,,---,0.00,VWS V14.01,2013-01-29 19:16:00,
2013-01-29 14:21:00,82.8,60.3,30.13,ESE,122,6.8,9.3,47,0.00,,---,0.00,VWS V14.01,2013-01-29 19:21:00,
2013-01-29 14:26:00,81.8,59.6,30.13,ESE,120,3.4,8.0,47,0.00,,---,0.00,VWS V14.01,2013-01-29 19:26:00,
2013-01-29 14:31:00,80.9,59.5,30.13,SSW,194,6.1,7.7,48,0.00,,---,0.00,VWS V14.01,2013-01-29 19:31:00,
2013-01-29 14:36:00,81.4,60.4,30.13,SE,142,6.2,9.4,49,0.00,,---,0.00,VWS V14.01,2013-01-29 19:36:00,
2013-01-29 14:41:00,82.1,60.3,30.13,ESE,114,5.1,8.6,48,0.00,,---,0.00,VWS V14.01,2013-01-29 19:41:00,
2013-01-29 14:46:00,82.1,60.4,30.12,SSE,159,4.7,6.3,48,0.00,,---,0.00,VWS V14.01,2013-01-29 19:46:00,
2013-01-29 14:51:00,80.9,59.3,30.12,ESE,118,4.5,7.1,48,0.00,,---,0.00,VWS V14.01,2013-01-29 19:51:00,
2013-01-29 14:56:00,81.1,59.7,30.12,SE,125,5.1,7.7,48,0.00,,---,0.00,VWS V14.01,2013-01-29 19:56:00,
2013-01-29 14:58:00,81.3,60.0,30.13,NE,56,1.4,4.5,48,0.00,,---,0.00,VWS V14.01,2013-01-29 19:58:00,
2013-01-29 15:03:00,81.4,60.0,30.12,SSE,158,4.8,5.2,48,0.00,,---,0.00,VWS V14.01,2013-01-29 20:03:00,
2013-01-29 15:08:00,81.6,59.9,30.12,SSE,152,8.1,9.3,48,0.00,,---,0.00,VWS V14.01,2013-01-29 20:08:00,
2013-01-29 15:13:00,82.4,60.3,30.12,SSE,153,5.5,5.5,47,0.00,,---,0.00,VWS V14.01,2013-01-29 20:13:00,
2013-01-29 15:18:00,82.3,60.1,30.12,SSE,160,5.7,8.3,47,0.00,,---,0.00,VWS V14.01,2013-01-29 20:18:00,
2013-01-29 15:23:00,82.3,60.0,30.12,ESE,115,0.9,4.7,47,0.00,,---,0.00,VWS V14.01,2013-01-29 20:23:00,
2013-01-29 15:28:00,81.5,59.4,30.12,SSE,167,4.1,4.1,47,0.00,,---,0.00,VWS V14.01,2013-01-29 20:28:00,
2013-01-29 15:33:00,81.5,59.6,30.12,SE,141,1.0,1.4,47,0.00,,---,0.00,VWS V14.01,2013-01-29 20:33:00,
2013-01-29 15:38:00,82.4,59.9,30.12,SE,128,2.2,6.3,46,0.00,,---,0.00,VWS V14.01,2013-01-29 20:38:00,
2013-01-29 15:43:00,82.1,60.1,30.11,SSE,156,5.1,6.6,47,0.00,,---,0.00,VWS V14.01,2013-01-29 20:43:00,
2013-01-29 15:48:00,82.9,60.5,30.11,SSE,148,4.7,7.8,47,0.00,,---,0.00,VWS V14.01,2013-01-29 20:48:00,
2013-01-29 15:53:00,82.1,59.6,30.11,SE,129,4.5,7.0,46,0.00,,---,0.00,VWS V14.01,2013-01-29 20:53:00,
2013-01-29 15:58:00,82.4,60.0,30.11,ESE,118,5.2,10.4,47,0.00,,---,0.00,VWS V14.01,2013-01-29 20:58:00,
2013-01-29 16:03:00,82.4,60.0,30.11,ESE,110,5.7,9.0,47,0.00,,---,0.00,VWS V14.01,2013-01-29 21:03:00,
2013-01-29 16:08:00,82.7,60.3,30.11,SE,128,7.4,8.9,47,0.00,,---,0.00,VWS V14.01,2013-01-29 21:08:00,
2013-01-29 16:13:00,82.5,61.0,30.11,ESE,103,2.2,7.5,48,0.00,,---,0.00,VWS V14.01,2013-01-29 21:13:00,
2013-01-29 16:18:00,81.5,61.8,30.12,SSE,158,6.7,10.4,51,0.00,,---,0.00,VWS V14.01,2013-01-29 21:18:00,
2013-01-29 16:23:00,81.2,62.7,30.11,ESE,120,7.9,9.7,53,0.00,,---,0.00,VWS V14.01,2013-01-29 21:23:00,
2013-01-29 16:28:00,81.1,63.2,30.11,ESE,110,3.7,7.1,55,0.00,,---,0.00,VWS V14.01,2013-01-29 21:28:00,
2013-01-29 16:33:00,81.9,63.8,30.12,South,170,3.2,5.8,54,0.00,,---,0.00,VWS V14.01,2013-01-29 21:33:00,
2013-01-29 16:38:00,81.1,63.1,30.12,SE,128,1.7,6.3,54,0.00,,---,0.00,VWS V14.01,2013-01-29 21:38:00,
2013-01-29 16:43:00,80.7,63.6,30.12,SE,131,4.6,9.3,56,0.00,,---,0.00,VWS V14.01,2013-01-29 21:43:00,
2013-01-29 16:48:00,80.3,64.2,30.12,ESE,115,3.0,6.8,58,0.00,,---,0.00,VWS V14.01,2013-01-29 21:48:00,
2013-01-29 16:53:00,79.9,64.5,30.12,ESE,104,1.6,2.9,59,0.00,,---,0.00,VWS V14.01,2013-01-29 21:53:00,
2013-01-29 16:58:00,79.4,64.7,30.12,NE,37,2.5,8.3,61,0.00,,---,0.00,VWS V14.01,2013-01-29 21:58:00,
2013-01-29 17:03:00,79.7,65.2,30.12,SSE,150,4.9,5.2,61,0.00,,---,0.00,VWS V14.01,2013-01-29 22:03:00,
2013-01-29 17:08:00,79.4,65.2,30.12,SE,143,8.7,9.2,62,0.00,,---,0.00,VWS V14.01,2013-01-29 22:08:00,
2013-01-29 17:13:00,79.2,65.2,30.12,ESE,105,4.3,6.5,62,0.00,,---,0.00,VWS V14.01,2013-01-29 22:13:00,
2013-01-29 17:18:00,78.7,64.8,30.12,SSE,163,4.2,6.3,62,0.00,,---,0.00,VWS V14.01,2013-01-29 22:18:00,
2013-01-29 17:23:00,78.7,65.3,30.12,SSE,156,4.1,9.6,64,0.00,,---,0.00,VWS V14.01,2013-01-29 22:23:00,
2013-01-29 17:28:00,78.1,65.4,30.12,SE,127,3.4,3.5,65,0.00,,---,0.00,VWS V14.01,2013-01-29 22:28:00,
2013-01-29 17:33:00,78.1,65.9,30.12,East,90,1.2,3.1,66,0.00,,---,0.00,VWS V14.01,2013-01-29 22:33:00,
2013-01-29 17:38:00,77.3,65.6,30.13,ESE,108,2.2,2.7,67,0.00,,---,0.00,VWS V14.01,2013-01-29 22:38:00,
2013-01-29 17:43:00,77.2,65.9,30.13,ESE,122,4.7,6.2,68,0.00,,---,0.00,VWS V14.01,2013-01-29 22:43:00,
2013-01-29 17:48:00,76.8,65.8,30.13,East,100,5.0,9.3,69,0.00,,---,0.00,VWS V14.01,2013-01-29 22:48:00,
2013-01-29 17:53:00,77.2,66.1,30.13,SE,142,3.7,6.8,69,0.00,,---,0.00,VWS V14.01,2013-01-29 22:53:00,
2013-01-29 17:58:00,77.0,65.9,30.13,ESE,118,7.4,7.5,69,0.00,,---,0.00,VWS V14.01,2013-01-29 22:58:00,
2013-01-29 18:03:00,76.8,65.8,30.13,SE,141,4.5,9.4,69,0.00,,---,0.00,VWS V14.01,2013-01-29 23:03:00,
2013-01-29 18:08:00,76.1,65.2,30.12,South,173,6.7,8.1,69,0.00,,---,0.00,VWS V14.01,2013-01-29 23:08:00,
2013-01-29 18:13:00,76.8,66.0,30.12,ESE,121,6.3,7.8,69,0.00,,---,0.00,VWS V14.01,2013-01-29 23:13:00,
2013-01-29 18:18:00,76.0,65.4,30.13,SSE,162,2.4,6.6,70,0.00,,---,0.00,VWS V14.01,2013-01-29 23:18:00,
2013-01-29 18:23:00,76.1,65.6,30.13,SE,145,1.6,1.9,70,0.00,,---,0.00,VWS V14.01,2013-01-29 23:23:00,
2013-01-29 18:28:00,76.1,65.7,30.13,SE,139,3.3,8.2,70,0.00,,---,0.00,VWS V14.01,2013-01-29 23:28:00,
2013-01-29 18:33:00,76.1,65.8,30.13,SE,136,5.7,7.0,70,0.00,,---,0.00,VWS V14.01,2013-01-29 23:33:00,
2013-01-29 18:38:00,76.0,65.9,30.13,SE,142,7.1,8.5,71,0.00,,---,0.00,VWS V14.01,2013-01-29 23:38:00,
2013-01-29 18:43:00,76.2,66.3,30.13,ESE,110,6.6,6.6,71,0.00,,---,0.00,VWS V14.01,2013-01-29 23:43:00,
2013-01-29 18:48:00,75.3,65.5,30.13,SE,127,1.3,2.5,72,0.00,,---,0.00,VWS V14.01,2013-01-29 23:48:00,
2013-01-29 18:53:00,75.0,65.4,30.14,ESE,104,3.6,6.0,72,0.00,,---,0.00,VWS V14.01,2013-01-29 23:53:00,
2013-01-29 18:58:00,75.6,66.2,30.14,ESE,105,4.2,5.2,72,0.00,,---,0.00,VWS V14.01,2013-01-29 23:58:00,
2013-01-29 19:03:00,75.4,66.0,30.14,SSE,155,2.2,5.5,73,0.00,,---,0.00,VWS V14.01,2013-01-30 00:03:00,
2013-01-29 19:08:00,74.4,65.3,30.14,SE,136,2.9,9.6,73,0.00,,---,0.00,VWS V14.01,2013-01-30 00:08:00,
2013-01-29 19:13:00,74.9,65.9,30.14,SE,136,0.9,2.3,74,0.00,,---,0.00,VWS V14.01,2013-01-30 00:13:00,
2013-01-29 19:18:00,75.0,66.1,30.14,SE,125,0.7,2.2,74,0.00,,---,0.00,VWS V14.01,2013-01-30 00:18:00,
2013-01-29 19:23:00,74.5,65.9,30.14,South,179,1.9,2.4,75,0.00,,---,0.00,VWS V14.01,2013-01-30 00:23:00,
2013-01-29 19:28:00,74.1,65.8,30.14,SSE,149,3.9,3.9,75,0.00,,---,0.00,VWS V14.01,2013-01-30 00:28:00,
2013-01-29 19:33:00,73.9,65.8,30.14,SE,131,5.0,8.1,76,0.00,,---,0.00,VWS V14.01,2013-01-30 00:33:00,
2013-01-29 19:38:00,73.4,65.5,30.15,South,173,3.1,8.2,76,0.00,,---,0.00,VWS V14.01,2013-01-30 00:38:00,
2013-01-29 19:43:00,73.1,65.4,30.15,South,184,2.4,7.2,77,0.00,,---,0.00,VWS V14.01,2013-01-30 00:43:00,
2013-01-29 19:48:00,73.9,66.5,30.15,ESE,120,7.1,10.1,78,0.00,,---,0.00,VWS V14.01,2013-01-30 00:48:00,
2013-01-29 19:53:00,73.0,65.6,30.15,SSE,155,3.4,6.0,78,0.00,,---,0.00,VWS V14.01,2013-01-30 00:53:00,
2013-01-29 19:58:00,72.8,65.5,30.14,SE,138,8.5,8.9,78,0.00,,---,0.00,VWS V14.01,2013-01-30 00:58:00,
2013-01-29 20:03:00,73.2,66.2,30.14,SSE,160,6.2,9.8,79,0.00,,---,0.00,VWS V14.01,2013-01-30 01:03:00,
2013-01-29 20:08:00,73.5,66.5,30.14,South,184,3.2,9.1,79,0.00,,---,0.00,VWS V14.01,2013-01-30 01:08:00,
2013-01-29 20:13:00,73.0,66.2,30.14,SE,143,4.0,4.2,79,0.00,,---,0.00,VWS V14.01,2013-01-30 01:13:00,
2013-01-29 20:18:00,72.6,66.0,30.14,South,169,2.0,3.9,80,0.00,,---,0.00,VWS V14.01,2013-01-30 01:18:00,
2013-01-29 20:23:00,73.0,66.5,30.14,ESE,108,1.4,5.5,80,0.00,,---,0.00,VWS V14.01,2013-01-30 01:23:00,
2013-01-29 20:28:00,73.0,66.7,30.14,SSE,156,6.2,7.2,80,0.00,,---,0.00,VWS V14.01,2013-01-30 01:28:00,
2013-01-29 20:33:00,72.5,66.3,30.14,South,177,5.7,7.4,81,0.00,,---,0.00,VWS V14.01,2013-01-30 01:33:00,
2013-01-29 20:38:00,72.9,66.7,30.14,SE,134,2.0,5.1,81,0.00,,---,0.00,VWS V14.01,2013-01-30 01:38:00,
2013-01-29 20:43:00,72.7,66.5,30.14,SE,145,8.3,9.1,81,0.00,,---,0.00,VWS V14.01,2013-01-30 01:43:00,
2013-01-29 20:48:00,72.1,66.0,30.14,SE,136,7.8,8.1,81,0.00,,---,0.00,VWS V14.01,2013-01-30 01:48:00,
2013-01-29 20:53:00,72.5,66.5,30.14,SSE,160,8.8,10.4,81,0.00,,---,0.00,VWS V14.01,2013-01-30 01:53:00,
2013-01-29 20:58:00,72.3,66.3,30.14,SE,141,5.4,6.6,82,0.00,,---,0.00,VWS V14.01,2013-01-30 01:58:00,
2013-01-29 21:03:00,71.5,65.7,30.14,SE,131,6.2,8.0,82,0.00,,---,0.00,VWS V14.01,2013-01-30 02:03:00,
2013-01-29 21:08:00,71.6,65.8,30.14,SE,142,4.5,5.3,82,0.00,,---,0.00,VWS V14.01,2013-01-30 02:08:00,
2013-01-29 21:13:00,71.9,66.2,30.13,SE,134,4.5,6.0,82,0.00,,---,0.00,VWS V14.01,2013-01-30 02:13:00,
2013-01-29 21:18:00,71.1,65.5,30.13,SE,141,5.4,7.6,82,0.00,,---,0.00,VWS V14.01,2013-01-30 02:18:00,
2013-01-29 21:23:00,71.4,65.9,30.13,SSW,194,5.3,9.8,83,0.00,,---,0.00,VWS V14.01,2013-01-30 02:23:00,
2013-01-29 21:28:00,70.7,65.3,30.13,South,169,2.8,6.0,83,0.00,,---,0.00,VWS V14.01,2013-01-30 02:28:00,
2013-01-29 21:33:00,71.1,65.8,30.13,SSE,156,2.6,5.1,83,0.00,,---,0.00,VWS V14.01,2013-01-30 02:33:00,
2013-01-29 21:38:00,71.1,66.0,30.13,South,174,6.5,7.1,84,0.00,,---,0.00,VWS V14.01,2013-01-30 02:38:00,
2013-01-29 21:43:00,71.5,66.5,30.13,SSE,167,3.1,3.1,84,0.00,,---,0.00,VWS V14.01,2013-01-30 02:43:00,
2013-01-29 21:48:00,70.7,65.7,30.13,SE,136,6.5,9.0,84,0.00,,---,0.00,VWS V14.01,2013-01-30 02:48:00,
2013-01-29 21:53:00,71.1,66.2,30.13,SE,141,8.4,11.6,84,0.00,,---,0.00,VWS V14.01,2013-01-30 02:53:00,
2013-01-29 21:58:00,71.2,66.3,30.13,SE,142,3.5,5.9,84,0.00,,---,0.00,VWS V14.01,2013-01-30 02:58:00,
2013-01-29 22:03:00,70.5,65.6,30.12,ESE,114,7.9,8.8,85,0.00,,---,0.00,VWS V14.01,2013-01-30 03:03:00,
2013-01-29 22:08:00,71.2,66.4,30.12,SSE,156,4.3,7.5,85,0.00,,---,0.00,VWS V14.01,2013-01-30 03:08:00,
2013-01-29 22:13:00,70.8,66.1,30.13,SE,143,6.5,7.5,85,0.00,,---,0.00,VWS V14.01,2013-01-30 03:13:00,
2013-01-29 22:18:00,71.1,66.3,30.12,SE,142,5.8,6.0,85,0.00,,---,0.00,VWS V14.01,2013-01-30 03:18:00,
2013-01-29 22:23:00,70.7,65.9,30.12,SSE,153,3.2,3.7,85,0.00,,---,0.00,VWS V14.01,2013-01-30 03:23:00,
2013-01-29 22:28:00,70.6,65.9,30.12,SE,134,0.9,2.2,85,0.00,,---,0.00,VWS V14.01,2013-01-30 03:28:00,
2013-01-29 22:33:00,70.5,65.8,30.12,SSE,163,4.9,7.3,85,0.00,,---,0.00,VWS V14.01,2013-01-30 03:33:00,
2013-01-29 22:38:00,71.3,66.6,30.12,SE,136,2.7,6.7,85,0.00,,---,0.00,VWS V14.01,2013-01-30 03:38:00,
2013-01-29 22:43:00,70.8,66.1,30.12,SE,142,6.5,8.1,85,0.00,,---,0.00,VWS V14.01,2013-01-30 03:43:00,
2013-01-29 22:48:00,71.3,66.5,30.12,SE,146,5.7,6.2,85,0.00,,---,0.00,VWS V14.01,2013-01-30 03:48:00,
2013-01-29 22:53:00,70.4,65.7,30.12,SE,129,8.6,9.3,85,0.00,,---,0.00,VWS V14.01,2013-01-30 03:53:00,
2013-01-29 22:58:00,71.4,66.8,30.12,SE,129,8.5,9.3,86,0.00,,---,0.00,VWS V14.01,2013-01-30 03:58:00,
2013-01-29 23:03:00,71.3,66.8,30.12,SE,141,8.9,9.3,86,0.00,,---,0.00,VWS V14.01,2013-01-30 04:03:00,
2013-01-29 23:08:00,70.5,66.1,30.12,SE,129,2.8,5.0,86,0.00,,---,0.00,VWS V14.01,2013-01-30 04:08:00,
2013-01-29 23:13:00,70.5,66.2,30.12,SSE,163,5.1,5.9,86,0.00,,---,0.00,VWS V14.01,2013-01-30 04:13:00,
2013-01-29 23:18:00,69.8,65.7,30.12,SE,124,7.2,7.2,87,0.00,,---,0.00,VWS V14.01,2013-01-30 04:18:00,
2013-01-29 23:23:00,70.7,66.6,30.12,South,170,3.1,5.1,87,0.00,,---,0.00,VWS V14.01,2013-01-30 04:23:00,
2013-01-29 23:28:00,70.8,66.7,30.13,SE,146,2.3,3.1,87,0.00,,---,0.00,VWS V14.01,2013-01-30 04:28:00,
2013-01-29 23:33:00,70.6,66.6,30.12,SSE,159,4.0,4.5,87,0.00,,---,0.00,VWS V14.01,2013-01-30 04:33:00,
2013-01-29 23:38:00,71.1,67.2,30.13,ESE,115,6.4,6.9,88,0.00,,---,0.00,VWS V14.01,2013-01-30 04:38:00,
2013-01-29 23:43:00,70.8,66.9,30.13,SSE,150,7.3,8.3,88,0.00,,---,0.00,VWS V14.01,2013-01-30 04:43:00,
2013-01-29 23:48:00,70.5,66.8,30.13,SSE,162,2.2,2.2,88,0.00,,---,0.00,VWS V14.01,2013-01-30 04:48:00,
2013-01-29 23:53:00,70.3,66.7,30.13,SE,139,3.2,4.5,88,0.00,,---,0.00,VWS V14.01,2013-01-30 04:53:00,
2013-01-29 23:57:00,70.2,66.6,30.13,SE,124,2.9,2.9,88,0.00,,---,0.00,VWS V14.01,2013-01-30 04:57:00,